Regional Weather Roundup
Issued by NWS Upton, NY

Current Version | Previous Version | Text Only | Print | Product List | Glossary On
Versions: 1 2 3 4 5 6 7 8 9 10 11 12 13 14 15 16 17 18 19 20 21 22 23 24 25 26 27
000
ASUS41 KOKX 201608
RWROKX

REGIONAL WEATHER ROUNDUP
NATIONAL WEATHER SERVICE NEW YORK NY
1100 AM EST FRI JAN 20 2017

NOTE: "FAIR" INDICATES FEW OR NO CLOUDS BELOW 12,000 FEET WITH NO
SIGNIFICANT WEATHER AND/OR OBSTRUCTIONS TO VISIBILITY.

NYZ071-072-176-178-NJZ106-104-201700-
NEW YORK CITY METRO AREA

CITY           SKY/WX    TMP DP  RH WIND       PRES   REMARKS
Central Park   CLOUDY    42  32  67 CALM      30.05R
Wall St Helipt CLOUDY    43  32  65 CALM      30.04S
Bronx Bot Gard NOT AVBL
LaGuardia APRT CLOUDY    43  32  65 NE6       30.03R
Kennedy INTL   CLOUDY    44  28  53 S3        30.05R
Breezy Point     N/A     39 N/A N/A E5          N/A
Newark/Liberty CLOUDY    43  32  65 VRB5      30.02R
Teterboro      CLOUDY    43  32  65 S3        30.03R
$$

NYZ177-179-078>081-201700-
LONG ISLAND NEW YORK

CITY           SKY/WX    TMP DP  RH WIND       PRES   REMARKS
Jones Beach      N/A     41 N/A N/A SE5         N/A
Matinecock PT  NOT AVBL
Farmingdale    CLOUDY    43  32  65 CALM      30.03R
MacArthur/ISP  CLOUDY    42  32  67 CALM      30.02R
Shirley        CLOUDY    42  32  67 CALM      30.02F
Westhampton    CLOUDY    43  31  62 CALM      30.02F
Southampton    NOT AVBL
Bridgehampton  NOT AVBL
East Hampton   CLOUDY    41  32  69 CALM      30.01F
Montauk          N/A     41  33  73 NE6       30.04F
$$

NYZ052-065-067-201700-
HUDSON VALLEY

CITY           SKY/WX    TMP DP  RH WIND       PRES   REMARKS
White Plains   CLOUDY    40  31  70 S3        30.01R
Newburgh       CLOUDY    37  32  81 E6        30.01S WCI  33
Montgomery     CLOUDY    40  31  70 CALM      30.00R
Poughkeepsie   CLOUDY    39  30  70 S3        30.00F
Albany         CLOUDY    38  30  73 S8        30.00F WCI  32
$$

NJZ001-105-106-008-010-013-015-019>022-104-201700-
NEW JERSEY

CITY           SKY/WX    TMP DP  RH WIND       PRES   REMARKS
Newark/Liberty CLOUDY    43  32  65 VRB5      30.02R
Teterboro      CLOUDY    43  32  65 S3        30.03R
Caldwell       CLOUDY    42  31  64 S3        30.03R
Somerville     CLOUDY    43  34  70 E5        29.99F
Linden         CLOUDY    42  32  68 CALM      30.04R
Sussex         CLOUDY    39  34  82 CALM      30.00R
Andover          N/A     39  31  72 VRB3      29.99F
Trenton        CLOUDY    40  36  86 SE5       30.00F
Millville      CLOUDY    40  36  86 CALM      30.02R
Atlantic City  CLOUDY    41  35  79 E3        30.00S
Wrightstown    CLOUDY    39  36  87 CALM      29.98F
Toms River     CLOUDY    42  38  85 E3        30.01F
Belmar         CLOUDY    44  37  76 E7        30.02F
$$

PAZ047>061-062-071-201700-
EASTERN PENNSYLVANIA

CITY           SKY/WX    TMP DP  RH WIND       PRES   REMARKS
Philadelphia   CLOUDY    40  34  79 CALM      30.03R
Allentown      CLOUDY    40  32  73 SE3       30.00S
Scranton       CLOUDY    40  34  79 W3        29.93S
$$

CTZ002-004>006-009-010-012-RIZ004-006-007-MAZ004-011-015-201700-
SOUTHERN NEW ENGLAND
 IN CT

CITY           SKY/WX    TMP DP  RH WIND       PRES   REMARKS
Bradley INTL   CLOUDY    39  31  72 CALM      30.02F
Hartford       CLOUDY    40  31  70 SE3       30.03S
Danbury        CLOUDY    38  30  73 CALM      30.01F
Wtrbury/Oxford CLOUDY    37  28  70 S6        30.01F WCI  33
Bridgeport     CLOUDY    42  30  62 SE5       30.02F
Meriden        CLOUDY    42  29  59 E5        30.02F
New Haven      CLOUDY    42  31  64 CALM      30.02F
Chester        CLOUDY    39  30  70 CALM      30.01F
Groton         CLOUDY    42  30  62 CALM      30.03S
Wilimantic     CLOUDY    40  32  73 CALM      30.03F

 IN RI

CITY           SKY/WX    TMP DP  RH WIND       PRES   REMARKS
Providence     CLOUDY    40  30  67 N3        30.03F
Block Island   NOT AVBL
Westerly       CLOUDY    42  29  59 CALM      30.04S
 IN MA

CITY           SKY/WX    TMP DP  RH WIND       PRES   REMARKS
Boston         CLOUDY    39  32  76 NE3       30.04S
Worcester      CLOUDY    34  26  72 S5        29.99S WCI  30
Westfield      CLOUDY    38  30  73 CALM      30.02S
Provincetown   CLOUDY    41  30  65 CALM      30.03F
Nantucket      CLOUDY    42  33  70 CALM      30.02F
$$

ANZ330-335-338-340-345-350-353-355-201700-
COASTAL MARINE OBSERVATIONS


STATION/POSITION TIME  SKY/WX   TEMP    WIND        PRES    VSBY  WAVE
                                AIR SEA DIR/SP/G                  HT/PER
                 (UTC)          (F)     (DEG/KT/KT) (MB)    (MI)  (FT/S)
NY HARB ENTRANCE 1450            42 44   90/ 10/ 12 1016.3          4/10
20 S FIRE ISLAND 1450            43 45   80/  8/ 10 1016.4          5/12
GREAT SOUTH BAY  NOT AVBL
23 SSW MONTAUK P 1450            43 48   70/  6/  8 1017.1          3/10
15 E BARNEGAT LI 1530               47                N/A           5/13
HUDSON CANYON    1450            48 51              1016.0          6/13
KINGS POINT      1542            39 39              1016.9
EXECUTION ROCKS  1545            40      30/  4/  4   N/A
CENTRAL LI SOUND 1530            40      80/  6/  8   N/A           0
EASTERN LI SOUND NOT AVBL
ROBBINS REEF     1548            41     180/  5/  6 1017.0
$$


>>>>>>>>>>>>>>>>>>>>>>>>>>>> KEY <<<<<<<<<<<<<<<<<<<<<<<<<<<
>                                                          <
>     SKY/WX - Sky Condition/Present Weather               <
>     TMP    - Temperature in Fahrenheit                   <
>     DP     - Dew Point in Fahrenheit                     <
>     RH     - Relative Humidity in Percent                <
>     WIND   - Direction (from) and Speed in MPH           <
>     PRES   - Mean Sea Level Pressure (inches of Hg)      <
>     WCI    - Wind Chill Index                            <
>     VSB    - VISIBILITY IN MILES                         <
>     HX     - HEAT INDEX                                  <
>     TC     - TEMPERATURE IN CELSIUS                      <
>     VRB    - VARIABLE WIND DIRECTION                     <
>                                                          <
>>>>>>>>>>>>>>>>>>>>>>>>>>>> KEY <<<<<<<<<<<<<<<<<<<<<<<<<<<




USA.gov is the U.S. government's official web portal to all federal, state and local government web resources and services.